GW0890 Weather Reports


time (UTC)temp
C
wind
direction
speed
KPH
gust
KPH
rain 1hr
cm
rain 24hr
cm
rain mn
cm
humidity
%
barometer
mb
20260904020028 25 207 0.0 1.6 0.00 0.00 0.00 92 1014.0
20260904014519 25 207 0.0 1.6 0.00 0.00 0.00 92 1013.6
20260904013018 26 207 1.6 6.4 0.00 0.00 0.00 90 1013.6
20260904011518 26 209 0.0 0.0 0.00 0.00 0.00 89 1013.4
20260904010015 26 209 0.0 0.0 0.00 0.00 0.00 88 1013.2
20260904004514 27 209 0.0 0.0 0.00 0.00 0.00 87 1013.1
20260904003013 27 209 0.0 0.0 0.00 0.00 0.00 86 1013.1
20260904001512 27 209 0.0 3.2 0.00 0.00 0.00 87 1012.8
20260904000010 28 209 0.0 3.2 0.00 0.00 0.00 86 1012.8
20260903234512 28 215 6.4 8.0 0.00 0.00 0.00 84 1012.8
20260903233009 30 209 6.4 9.7 0.00 0.00 0.00 79 1012.6
20260903231508 32 51 0.0 0.0 0.00 0.00 0.00 71 1012.3
20260903230004 34 33 0.0 6.4 0.00 0.00 0.00 65 1012.3
20260903224503 34 33 4.8 11.3 0.00 0.00 0.00 60 1012.1
20260903223002 35 34 4.8 9.7 0.00 0.00 0.00 59 1012.0
20260903221503 35 19 3.2 8.0 0.00 0.00 0.00 61 1011.7
20260903220107 35 28 4.8 9.7 0.00 0.00 0.00 60 1011.7
20260903214559 35 348 3.2 12.9 0.00 0.00 0.00 59 1011.6
20260903213058 35 319 8.0 14.5 0.00 0.00 0.00 58 1011.8
20260903211603 35 43 1.6 11.3 0.00 0.00 0.00 59 1012.1
20260903210023 35 349 3.2 11.3 0.00 0.00 0.00 55 1012.3
20260903204521 35 318 1.6 12.9 0.00 0.00 0.00 55 1012.7
20260903203023 35 81 9.7 14.5 0.00 0.00 0.00 53 1012.9
20260903201518 35 323 6.4 16.1 0.00 0.00 0.00 55 1013.0
20260903200034 35 65 8.0 12.9 0.00 0.00 0.00 55 1013.1
20260903194532 35 74 4.8 16.1 0.00 0.00 0.00 58 1013.2
20260903193007 35 88 3.2 9.7 0.00 0.00 0.00 58 1013.5
20260903191506 35 57 0.0 8.0 0.00 0.00 0.00 59 1013.6
20260903190003 34 225 0.0 3.2 0.00 0.00 0.00 58 1013.8
20260903184502 33 229 0.0 6.4 0.00 0.00 0.00 61 1013.9
20260903183117 32 225 3.2 9.7 0.00 0.00 0.00 73 1014.1
20260903181610 33 175 3.2 8.0 0.00 0.00 0.00 63 1014.2
20260903180053 34 200 6.4 14.5 0.00 0.00 0.00 58 1014.4
20260903174551 35 71 0.0 3.2 0.00 0.00 0.00 55 1014.5
20260903173058 36 22 3.2 9.7 0.00 0.00 0.00 54 1014.7
20260903171551 35 103 1.6 14.5 0.00 0.00 0.00 56 1014.7
20260903170042 34 79 0.0 9.7 0.00 0.00 0.00 59 1014.9
20260903164539 33 119 0.0 9.7 0.00 0.00 0.00 61 1015.0
20260903163036 33 5 3.2 12.9 0.00 0.00 0.00 61 1015.2
20260903161541 33 46 8.0 12.9 0.00 0.00 0.00 65 1015.3
20260903160131 33 65 6.4 11.3 0.00 0.00 0.00 64 1015.3
20260903154558 32 62 4.8 11.3 0.00 0.00 0.00 67 1015.3
20260903153053 32 58 3.2 8.0 0.00 0.00 0.00 69 1015.4
20260903151519 31 117 0.0 9.7 0.00 0.00 0.00 72 1015.5
20260903150017 30 323 3.2 8.0 0.00 0.00 0.00 78 1015.5
20260903144542 29 321 1.6 8.0 0.00 0.00 0.00 80 1015.5
20260903143042 28 315 0.0 4.8 0.00 0.00 0.00 84 1015.6
20260903141504 27 313 4.8 8.0 0.00 0.00 0.00 86 1015.5
20260903140101 27 304 0.0 4.8 0.00 0.00 0.00 88 1015.7
20260903134606 26 299 3.2 8.0 0.00 0.00 0.00 92 1015.6
20260903133052 25 267 1.6 8.0 0.00 0.00 0.00 96 1015.7
20260903131545 24 224 0.0 0.0 0.00 0.00 0.00 99 1015.9
20260903130044 23 224 0.0 0.0 0.00 0.00 0.00 99 1016.1
20260903124554 22 224 0.0 0.0 0.00 0.00 0.00 99 1016.1
20260903123041 22 224 0.0 0.0 0.00 0.00 0.00 99 1016.2
20260903121546 22 224 0.0 0.0 0.00 0.00 0.00 99 1016.2
20260903120037 21 224 0.0 0.0 0.00 0.00 0.00 99 1016.2
20260903114535 21 224 0.0 0.0 0.00 0.00 0.00 99 1016.0
20260903113032 21 224 0.0 0.0 0.00 0.00 0.00 99 1015.8
20260903111530 21 224 0.0 0.0 0.00 0.00 0.00 99 1015.8
20260903110028 21 224 0.0 0.0 0.00 0.00 0.00 99 1015.6
20260903104526 21 224 0.0 0.0 0.00 0.00 0.00 98 1015.4
20260903103023 21 224 0.0 0.0 0.00 0.00 0.00 99 1015.4
20260903101529 21 224 0.0 0.0 0.00 0.00 0.00 99 1015.2
20260903100025 21 224 0.0 0.0 0.00 0.00 0.00 99 1015.2
20260903094516 21 224 0.0 0.0 0.00 0.00 0.00 98 1015.1
20260903093016 21 224 0.0 0.0 0.00 0.00 0.00 98 1015.0
20260903091515 21 224 0.0 0.0 0.00 0.00 0.00 98 1015.0
20260903090014 21 224 0.0 0.0 0.00 0.00 0.00 98 1015.0
20260903084514 21 223 0.0 0.0 0.00 0.00 0.00 98 1015.0
20260903083011 22 223 0.0 0.0 0.00 0.00 0.00 98 1014.9
20260903081509 22 223 0.0 0.0 0.00 0.00 0.00 98 1014.9
20260903080008 22 223 0.0 0.0 0.00 0.00 0.00 98 1014.9
20260903074638 22 223 0.0 0.0 0.00 0.00 0.00 98 1014.9
20260903073044 22 223 0.0 0.0 0.00 0.00 0.00 98 1014.8
20260903071506 22 223 0.0 0.0 0.00 0.00 0.00 98 1014.8
20260903070006 22 223 0.0 0.0 0.00 0.00 0.00 98 1014.8
20260903064503 22 223 0.0 0.0 0.00 0.00 0.00 98 1014.9
20260903063125 22 223 0.0 0.0 0.00 0.00 0.00 98 1014.9
20260903061600 22 223 0.0 0.0 0.00 0.00 0.00 98 1015.0
20260903060059 22 223 0.0 0.0 0.00 0.00 0.00 98 1014.9
20260903054553 22 221 0.0 0.0 0.00 0.00 0.00 97 1014.8
20260903053056 23 221 0.0 0.0 0.00 0.00 0.00 97 1014.8
20260903051551 23 221 0.0 0.0 0.00 0.00 0.00 97 1014.8
20260903050050 23 221 0.0 0.0 0.00 0.00 0.00 97 1014.7
20260903044548 23 221 0.0 0.0 0.00 0.00 0.00 97 1014.6
20260903043101 23 221 0.0 0.0 0.00 0.00 0.00 97 1014.6
20260903041547 23 221 0.0 0.0 0.00 0.00 0.00 97 1014.6
20260903040047 23 221 0.0 0.0 0.00 0.00 0.00 97 1014.7
20260903034542 23 221 0.0 0.0 0.00 0.00 0.00 96 1014.7
20260903033041 23 221 0.0 0.0 0.00 0.00 0.00 96 1014.7
20260903031547 24 221 0.0 0.0 0.00 0.00 0.00 96 1014.8
20260903030041 24 221 0.0 0.0 0.00 0.00 0.00 96 1014.8
20260903024538 24 221 0.0 0.0 0.00 0.00 0.00 95 1014.9
20260903023038 24 220 0.0 3.2 0.00 0.00 0.00 95 1014.8
20260903021537 25 220 0.0 0.0 0.00 0.00 0.00 95 1014.7